Regional Weather Roundup
Issued by NWS Goodland, KS

Home | Current Version | Previous Version | Graphics & Text | Print | Product List | Glossary On
Versions: 1 2 3 4 5 6 7 8 9 10 11 12 13 14 15 16 17 18 19 20 21 22 23 24 25 26 27 28 29 30 31 32 33 34 35 36 37 38 39 40 41 42 43 44 45 46 47 48 49 50
000
ASUS43 KGLD 230608
RWRGLD

GOODLAND FORECAST AREA HOURLY WEATHER ROUNDUP
NATIONAL WEATHER SERVICE GOODLAND KS
1200 AM MDT FRI JUN 23 2017

...OFFICIAL OBSERVATIONS...

CITY           SKY/WX    TMP DP  RH WIND       PRES   REMARKS
GOODLAND KS    CLOUDY    67  57  70 NE13      29.98R
HILL CITY KS   CLOUDY    73  61  65 NE9       29.92R
IMPERIAL NEB   MOCLDY    63  48  58 NE8       29.99R
MCCOOK NEB     PTCLDY    66  49  54 NE15      29.94R
AKRON CO       CLOUDY    63  52  67 E8        30.04R
BURLINGTON CO  CLOUDY    67  57  70 E13       30.02R
LIMON CO       CLOUDY    63  55  75 E8        30.09R
$$

...UNOFFICIAL OBSERVATIONS...

CITY           SKY/WX    TMP DP  RH WIND       PRES   REMARKS
LENORA KS        N/A     66  32  28 MISG        N/A
NORTON KS      CLEAR     68  52  56 N12G22    29.90R
SHARON SPRINGS   N/A     70  60  71 NE12G21     N/A
TRENTON NEB      N/A     65  32  29 N7          N/A
KIT CARSON CO    N/A     66  58  75 CALM        N/A
YUMA CO        FAIR      63  46  55 E7        30.02R
$$




USA.gov is the U.S. government's official web portal to all federal, state and local government web resources and services.